VTK601 UBBB-UUDD

Flight info

Callsign VTK601
Flight time N/A
Altitude 34000
Route EKRAM DCT MKL DCT UP DCT WGD DCT RINGU DCT EPOGI DCT NEGLE DCT OLOPI OLOPI3L
Aircraft A321/M-SDE3FGHIRWY/LB1

Departure

Time 2025-09-05 11:42
Airport Heydar Aliyev International Airport (UBBB)

Arrival

Time N/A
Airport Domodedovo International Airport (UUDD)
Time Latitude Longitude Altitude Speed Heading
2025-09-05 11:30 40.46459 50.05865 15 ft 0 kts 178°
2025-09-05 11:38 40.46429 50.05888 15 ft 9 kts 126°
2025-09-05 11:38 40.46222 50.05964 15 ft 22 kts 179°
2025-09-05 11:39 40.45896 50.05965 15 ft 24 kts 176°
2025-09-05 11:40 40.45650 50.06237 12 ft 18 kts 86°
2025-09-05 11:40 40.45888 50.06321 10 ft 43 kts 359°
2025-09-05 11:41 40.47339 50.06300 12 ft 157 kts 359°
2025-09-05 11:41 40.48524 50.06272 288 ft 178 kts
2025-09-05 11:41 40.51040 50.05786 1480 ft 181 kts 352°
2025-09-05 11:42 40.53670 50.05142 2048 ft 210 kts 351°
2025-09-05 11:42 40.56852 50.04378 2386 ft 253 kts 351°
2025-09-05 11:43 40.60391 50.03540 3579 ft 263 kts 351°
2025-09-05 11:44 40.65981 50.03018 5365 ft 274 kts 358°
2025-09-05 11:44 40.69859 50.02907 6580 ft 280 kts 357°
2025-09-05 11:45 40.73792 50.02781 7794 ft 284 kts 356°
2025-09-05 11:45 40.77771 50.02633 8990 ft 288 kts 355°
2025-09-05 11:45 40.79780 50.02558 9595 ft 290 kts 355°
2025-09-05 11:46 40.83907 50.02403 10302 ft 311 kts 355°
2025-09-05 11:46 40.88484 50.02211 10557 ft 346 kts 355°
2025-09-05 11:47 40.93534 50.01998 10811 ft 378 kts 355°
2025-09-05 11:48 41.00832 50.01719 11498 ft 403 kts 356°
2025-09-05 11:48 41.06486 50.01513 12440 ft 410 kts 356°
2025-09-05 11:49 41.12121 50.00463 13386 ft 411 kts 339°
2025-09-05 11:49 41.14734 49.98941 13855 ft 411 kts 328°
2025-09-05 11:49 41.19130 49.94156 14696 ft 411 kts 312°
2025-09-05 11:50 41.23149 49.88692 15556 ft 415 kts 313°
2025-09-05 11:50 41.27236 49.83146 16366 ft 420 kts 312°
2025-09-05 11:51 41.31348 49.77556 17143 ft 424 kts 312°
2025-09-05 11:51 41.35491 49.71910 17900 ft 429 kts 312°
2025-09-05 11:52 41.41783 49.63312 18923 ft 434 kts 312°
2025-09-05 11:53 41.46016 49.57511 19528 ft 438 kts 312°
2025-09-05 11:53 41.50277 49.51656 20176 ft 441 kts 311°
2025-09-05 11:54 41.54567 49.45752 20825 ft 445 kts 312°
2025-09-05 11:54 41.56727 49.42782 21129 ft 447 kts 312°
2025-09-05 11:54 41.61073 49.36794 21709 ft 451 kts 312°
2025-09-05 11:55 41.65448 49.30744 22258 ft 455 kts 312°
2025-09-05 11:56 41.72084 49.21550 23121 ft 461 kts 312°
2025-09-05 11:56 41.76547 49.15331 23704 ft 463 kts 312°
2025-09-05 11:57 41.81033 49.09081 24438 ft 461 kts 311°
2025-09-05 11:57 41.83247 49.05986 24808 ft 459 kts 311°
2025-09-05 11:58 41.96369 48.87627 27055 ft 451 kts 311°
2025-09-05 12:01 42.15547 48.60559 30358 ft 438 kts 310°
2025-09-05 12:02 42.30083 48.39872 32348 ft 430 kts 309°
2025-09-05 12:05 42.48490 48.13464 34029 ft 431 kts 308°
2025-09-05 12:06 42.62907 47.92589 34026 ft 433 kts 309°
2025-09-05 12:09 42.82048 47.66296 34017 ft 446 kts 326°
2025-09-05 12:10 43.03906 47.60654 34004 ft 463 kts 348°
2025-09-05 12:12 43.29502 47.56029 34029 ft 463 kts 348°
2025-09-05 12:14 43.55045 47.51376 34034 ft 462 kts 349°
2025-09-05 12:16 43.80520 47.46690 34038 ft 461 kts 349°
2025-09-05 12:18 44.05920 47.41977 34048 ft 460 kts 349°
2025-09-05 12:20 44.30124 47.37434 34032 ft 456 kts 349°
2025-09-05 12:22 44.55194 47.32727 34031 ft 452 kts 349°
2025-09-05 12:24 44.80050 47.27992 34023 ft 450 kts 349°
2025-09-05 12:26 45.04841 47.23236 34018 ft 448 kts 349°
2025-09-05 12:28 45.29519 47.18449 34014 ft 447 kts 349°
2025-09-05 12:30 45.54214 47.13629 34029 ft 448 kts 349°
2025-09-05 12:32 45.78822 47.08792 34034 ft 444 kts 348°
2025-09-05 12:34 46.01575 46.98097 34037 ft 430 kts 326°
2025-09-05 12:36 46.21836 46.79887 34034 ft 428 kts 326°
2025-09-05 12:38 46.41966 46.61611 34037 ft 426 kts 326°
2025-09-05 12:40 46.61989 46.43262 34041 ft 423 kts 326°
2025-09-05 12:42 46.81874 46.24899 34038 ft 423 kts 326°
2025-09-05 12:44 47.01704 46.06420 34078 ft 423 kts 326°
2025-09-05 12:46 47.21285 45.88014 34033 ft 417 kts 326°
2025-09-05 12:49 47.43283 45.67136 34039 ft 417 kts 326°
2025-09-05 12:50 47.60343 45.50794 34072 ft 417 kts 326°
2025-09-05 12:53 47.82166 45.29690 34063 ft 415 kts 326°
2025-09-05 12:54 47.98298 45.13948 34063 ft 415 kts 326°
2025-09-05 12:56 48.17617 44.94956 34098 ft 416 kts 325°
2025-09-05 12:58 48.36824 44.75907 34078 ft 412 kts 325°
2025-09-05 13:00 48.55998 44.56704 34079 ft 414 kts 325°
2025-09-05 13:02 48.75213 44.37264 34093 ft 416 kts 325°
2025-09-05 13:05 48.97077 44.15851 34097 ft 415 kts 326°
2025-09-05 13:06 49.14062 43.99148 34089 ft 415 kts 326°
2025-09-05 13:09 49.35968 43.77409 34110 ft 417 kts 326°
2025-09-05 13:11 49.55338 43.57974 34098 ft 415 kts 326°
2025-09-05 13:12 49.72245 43.40851 34094 ft 416 kts 325°
2025-09-05 13:15 49.94043 43.18590 34120 ft 418 kts 325°
2025-09-05 13:17 50.13430 42.98574 34096 ft 418 kts 325°
2025-09-05 13:18 50.30393 42.80905 34090 ft 420 kts 325°
2025-09-05 13:21 50.52283 42.57861 34100 ft 423 kts 324°
2025-09-05 13:22 50.69388 42.39689 34102 ft 425 kts 324°
2025-09-05 13:25 50.91497 42.15919 34108 ft 428 kts 324°
2025-09-05 13:26 51.08737 41.97216 34131 ft 429 kts 324°
2025-09-05 13:29 51.30059 41.73827 34148 ft 428 kts 324°
2025-09-05 13:30 51.47249 41.54790 34147 ft 430 kts 324°
2025-09-05 13:33 51.69368 41.30085 34157 ft 431 kts 325°
2025-09-05 13:34 51.87035 41.11985 34169 ft 429 kts 326°
2025-09-05 13:37 52.09652 40.88374 34168 ft 429 kts 326°
2025-09-05 13:38 52.27223 40.69823 34185 ft 431 kts 326°
2025-09-05 13:41 52.50415 40.47402 34187 ft 430 kts 329°
2025-09-05 13:42 52.68635 40.30295 34185 ft 431 kts 328°
2025-09-05 13:45 52.92139 40.08037 34205 ft 432 kts 328°
2025-09-05 13:46 53.10398 39.90550 34205 ft 434 kts 328°
2025-09-05 13:48 53.31319 39.70288 34226 ft 436 kts 327°
2025-09-05 13:50 53.52648 39.50850 34210 ft 439 kts 331°
2025-09-05 13:53 53.77159 39.30011 29413 ft 418 kts 331°
2025-09-05 13:54 53.90443 39.18538 24795 ft 437 kts 332°
2025-09-05 13:54 53.95854 39.13848 23087 ft 438 kts 333°
2025-09-05 13:55 54.01241 39.09170 21621 ft 431 kts 333°
2025-09-05 13:56 54.09148 39.02259 19871 ft 413 kts 333°
2025-09-05 13:56 54.14075 38.97952 19630 ft 383 kts 333°
2025-09-05 13:57 54.18538 38.94029 18797 ft 344 kts 333°
2025-09-05 13:57 54.22807 38.90275 18331 ft 346 kts 333°
2025-09-05 13:57 54.24947 38.88408 18071 ft 345 kts 334°
2025-09-05 13:58 54.29223 38.84770 17553 ft 340 kts 334°
2025-09-05 13:58 54.33439 38.81204 16646 ft 336 kts 334°
2025-09-05 13:59 54.37644 38.77628 15688 ft 333 kts 334°
2025-09-05 14:00 54.43125 38.72935 14487 ft 329 kts 334°
2025-09-05 14:00 54.47171 38.69442 13654 ft 324 kts 334°
2025-09-05 14:01 54.51184 38.65990 12709 ft 321 kts 335°
2025-09-05 14:01 54.55154 38.62567 11828 ft 317 kts 335°
2025-09-05 14:02 54.59052 38.59191 10611 ft 309 kts 335°
2025-09-05 14:02 54.60934 38.57559 10348 ft 297 kts 335°
2025-09-05 14:02 54.64524 38.54441 9987 ft 281 kts 335°
2025-09-05 14:03 54.67962 38.51448 9328 ft 277 kts 335°
2025-09-05 14:04 54.73065 38.47001 8358 ft 270 kts 335°
2025-09-05 14:04 54.76410 38.44096 7688 ft 268 kts 335°
2025-09-05 14:04 54.78068 38.42655 7357 ft 267 kts 335°
2025-09-05 14:05 54.82922 38.38451 6390 ft 246 kts 335°
2025-09-05 14:05 54.84461 38.37108 6115 ft 247 kts 335°
2025-09-05 14:06 54.87508 38.34438 5880 ft 245 kts 335°
2025-09-05 14:06 54.90533 38.31768 5773 ft 244 kts 335°
2025-09-05 14:07 54.93557 38.29105 5669 ft 242 kts 335°
2025-09-05 14:08 54.98074 38.25093 5506 ft 242 kts 335°
2025-09-05 14:08 55.01070 38.22435 5393 ft 243 kts 335°
2025-09-05 14:09 55.04082 38.19762 5285 ft 243 kts 335°
2025-09-05 14:09 55.07099 38.17089 5187 ft 243 kts 335°
2025-09-05 14:09 55.08605 38.15749 5136 ft 243 kts 335°
2025-09-05 14:10 55.11598 38.13084 5024 ft 238 kts 336°
2025-09-05 14:10 55.14695 38.11720 4740 ft 228 kts 351°
2025-09-05 14:11 55.17818 38.10723 4455 ft 228 kts 351°
2025-09-05 14:12 55.22539 38.09214 4133 ft 229 kts 351°
2025-09-05 14:12 55.25472 38.07170 3849 ft 231 kts 327°
2025-09-05 14:13 55.28072 38.04023 3270 ft 219 kts 327°
2025-09-05 14:13 55.30385 38.01260 2745 ft 183 kts 327°
2025-09-05 14:14 55.32338 37.98929 2271 ft 163 kts 327°
2025-09-05 14:14 55.33267 37.97819 2063 ft 160 kts 328°
2025-09-05 14:14 55.35042 37.95694 1642 ft 149 kts 327°
2025-09-05 14:15 55.36739 37.93662 1259 ft 146 kts 327°
2025-09-05 14:16 55.39220 37.90690 664 ft 144 kts 325°
2025-09-05 14:16 55.40697 37.88910 573 ft 93 kts 326°